Weather History for KSLC - March, 2013

Change the Weather History Date:

Tuesday, March 19, 2013

  Actual Average Record
Temperature  
Mean Temperature 44 °F 45 °F  
Max Temperature 56 °F 55 °F 75 °F (2004)
Min Temperature 31 °F 35 °F 10 °F (1965)
Degree Days  
Heating Degree Days 21 20  
Month to date heating degree days 393 434  
Since 1 July heating degree days 4625 4690  
Cooling Degree Days 0 0  
Month to date cooling degree days 0 0  
Year to date cooling degree days 0 0  
Moisture  
Dew Point 15 °F    
Average Humidity 40    
Maximum Humidity 69    
Minimum Humidity 11    
Precipitation  
Precipitation 0.00 in 0.06 in 0.97 in (1884)
Month to date precipitation 0.36 1.03  
Year to date precipitation 2.56 3.53  
Snow  
Snow 0.00 in 0.20 in 6.10 in (1983)
Month to date snowfall 0.0 4.2  
Since 1 July snowfall 67.1 49.6  
Snow Depth 0.00 in    
Sea Level Pressure  
Sea Level Pressure 30.15 in    
Wind  
Wind Speed 4 mph (North)    
Max Wind Speed 13 mph    
Max Gust Speed 16 mph    
Visibility 10 miles    
Events      
T = Trace of Precipitation, MM = Missing Value Source: NWS Daily Summary

Daily Weather History Graph

Daily Weather History Graph

Search for Another Location

Airport or City:

Trip Planner

Search our weather history database for the weather conditions in past years. The results will help you decide how hot, cold, wet, or windy it might be!

Date:

Astronomy

Mar. 19, 2013 Rise Set
Actual Time 7:32 AM MDT 7:39 PM MDT
Civil Twilight 7:05 AM MDT 8:06 PM MDT
Nautical Twilight 6:33 AM MDT 8:38 PM MDT
Astronomical Twilight 6:00 AM MDT 9:11 PM MDT
Moon 12:23 PM MDT (3/19) 2:30 AM MDT (3/19)
Length of Visible Light 13h 01m
Length of Day
12h 06m
Waxing Crescent, 50% of the Moon is Illuminated
Mar 19
Waxing Crescent
Mar 27
Full
Apr 2
Last Quarter
Apr 10
New
Apr 18
First Quarter

Hourly Weather History & Observations

Time (MDT) Temp. Windchill Dew Point Humidity Pressure Visibility Wind Dir Wind Speed Gust Speed Precip Events Conditions
12:53 AM 39.0 °F - 27.0 °F 62% 30.08 in 10.0 mi Calm Calm - N/A   Scattered Clouds
1:53 AM 37.9 °F - 27.0 °F 65% 30.09 in 10.0 mi Calm Calm - N/A   Scattered Clouds
2:53 AM 39.0 °F - 25.0 °F 57% 30.09 in 10.0 mi Calm Calm - N/A   Mostly Cloudy
3:53 AM 36.0 °F - 25.0 °F 64% 30.10 in 10.0 mi Calm Calm - N/A   Scattered Clouds
4:53 AM 35.1 °F - 23.0 °F 61% 30.10 in 10.0 mi Calm Calm - N/A   Scattered Clouds
5:53 AM 35.1 °F - 21.9 °F 59% 30.11 in 10.0 mi Calm Calm - N/A   Partly Cloudy
6:53 AM 34.0 °F - 21.0 °F 59% 30.14 in 10.0 mi Calm Calm - N/A   Partly Cloudy
7:53 AM 34.0 °F - 21.0 °F 59% 30.17 in 10.0 mi Calm Calm - N/A   Mostly Cloudy
8:53 AM 37.0 °F 33.3 °F 21.9 °F 54% 30.20 in 10.0 mi SSE 4.6 mph - N/A   Mostly Cloudy
9:53 AM 42.1 °F - 17.1 °F 37% 30.22 in 10.0 mi Calm Calm - N/A   Mostly Cloudy
10:53 AM 46.9 °F - 10.0 °F 22% 30.21 in 10.0 mi North 5.8 mph - N/A   Scattered Clouds
11:53 AM 48.0 °F - 8.1 °F 20% 30.22 in 10.0 mi NW 5.8 mph - N/A   Scattered Clouds
12:53 PM 50.0 °F - 8.1 °F 18% 30.22 in 10.0 mi North 9.2 mph - N/A   Scattered Clouds
1:53 PM 51.1 °F - -5.1 °F 10% 30.20 in 10.0 mi Calm Calm - N/A   Scattered Clouds
2:53 PM 53.1 °F - 8.1 °F 16% 30.17 in 10.0 mi North 5.8 mph - N/A   Scattered Clouds
3:53 PM 54.0 °F - 8.1 °F 16% 30.17 in 10.0 mi Variable 4.6 mph - N/A   Partly Cloudy
4:53 PM 55.0 °F - 7.0 °F 15% 30.15 in 10.0 mi NNW 4.6 mph - N/A   Partly Cloudy
5:53 PM 54.0 °F - 8.1 °F 16% 30.15 in 10.0 mi North 8.1 mph - N/A   Scattered Clouds
6:53 PM 53.1 °F - 10.0 °F 18% 30.13 in 10.0 mi North 5.8 mph - N/A   Scattered Clouds
7:53 PM 50.0 °F - 10.9 °F 21% 30.14 in 10.0 mi NW 6.9 mph - N/A   Partly Cloudy
8:53 PM 46.9 °F - 17.1 °F 30% 30.15 in 10.0 mi NNE 3.5 mph - N/A   Scattered Clouds
9:53 PM 45.0 °F 42.6 °F 10.0 °F 24% 30.14 in 10.0 mi SSE 4.6 mph - N/A   Mostly Cloudy
10:53 PM 43.0 °F 38.2 °F 12.0 °F 28% 30.12 in 10.0 mi SE 8.1 mph - N/A   Mostly Cloudy
11:53 PM 42.1 °F 37.7 °F 16.0 °F 35% 30.09 in 10.0 mi South 6.9 mph - N/A   Scattered Clouds